Temperature
19 19 19 19 20 20 20 20 20 20 20 20 19 19 19 19 19 19 19 18 18 18 18 18 18 18 18 18 18 18 18 18 18 17 17 17 17 17 17 17 17 17 17
20 20 19 19 20 20 20 20 20 20 20 20 19 19 19 19 19 18 18 18 18 18 18 18 18 18 18 18 18 18 18 18 17 17 17 17 17 17 17 17 17 17 17
20 20 19 19 20 20 20 20 20 20 20 19 19 19 19 19 19 18 18 18 18 18 18 18 18 18 18 18 18 18 18 17 17 17 17 17 17 17 17 17 17 17 17
20 20 20 20 20 20 20 20 20 20 19 19 19 19 19 19 18 18 18 18 18 18 18 18 18 18 17 17 17 17 17 17 17 17 17 17 17 17 17 17 17 17 17
20 20 20 20 20 20 20 20 20 20 19 19 19 19 19 18 18 18 18 18 18 18 18 18 17 17 17 17 17 17 17 17 17 17 17 17 17 17 17 17 17 17 17
20 20 20 20 20 20 20 20 20 19 19 19 19 19 18 18 18 18 18 18 18 18 18 18 17 17 17 17 17 17 17 17 17 17 17 17 17 17 17 17 17 17 17
20 20 20 20 20 20 20 20 19 19 19 19 19 18 18 18 18 18 18 18 18 18 18 17 17 17 17 17 17 17 17 17 17 17 17 17 17 17 17 17 17 17 17
20 19 19 19 19 19 19 19 19 19 19 19 19 18 18 18 18 18 18 18 18 18 18 17 17 17 17 17 17 17 17 17 17 17 17 17 17 17 17 17 17 17 17
19 19 19 19 19 19 19 19 19 19 19 18 18 18 18 18 18 18 18 18 18 18 17 17 17 17 17 17 17 17 17 17 17 17 17 17 17 17 17 17 17 17 17
19 19 19 19 19 19 19 19 19 19 18 18 18 18 18 18 18 17 17 17 17 17 17 17 17 17 17 17 17 17 17 17 17 17 17 17 17 17 17 17 17 17 17
18 19 19 19 19 19 19 19 18 18 18 18 18 18 17 17 17 17 17 17 17 17 17 17 17 17 17 17 17 17 17 17 17 17 17 17 17 17 17 17 17 17 17
18 18 19 19 19 19 18 18 18 18 18 18 18 17 17 17 17 17 17 17 17 17 17 17 17 17 17 17 17 17 17 17 17 17 17 17 17 17 17 17 17 17 17
19 18 18 19 18 18 18 18 18 18 18 18 18 17 17 17 17 17 17 17 17 17 17 17 17 17 17 17 17 17 17 17 17 17 17 17 17 17 17 17 17 17 17
18 18 19 18 18 18 18 18 18 18 18 18 17 17 17 17 17 17 17 17 17 17 17 17 17 17 16 16 17 17 17 17 17 17 17 17 17 17 17 17 17 17 17
18 19 18 18 18 18 18 18 18 18 18 17 17 17 17 17 17 17 17 16 16 16 16 16 16 16 16 16 16 17 17 17 17 17 17 17 17 17 16 16 17 17 17
19 19 19 18 18 18 18 18 18 18 18 17 17 17 17 17 17 16 16 16 16 16 16 16 16 16 16 16 16 16 16 16 16 17 16 17 16 16 16 16 16 16 16
19 19 19 18 18 18 18 18 18 18 17 17 17 17 17 17 16 16 16 16 16 16 15 15 16 16 16 16 16 16 16 16 16 16 16 16 16 16 16 16 16 16 16
19 19 19 18 18 18 18 18 18 17 17 17 17 17 17 16 16 16 16 16 15 15 15 15 15 15 16 16 16 16 16 16 16 16 16 16 16 16 16 16 16 16 16
19 19 18 18 18 18 18 18 17 17 17 17 17 17 17 16 16 16 16 15 15 15 15 15 15 15 15 15 15 16 16 16 16 16 16 16 16 16 16 16 16 16 16
18 18 18 18 18 18 18 17 17 17 17 17 17 17 16 16 16 16 15 15 15 15 15 15 15 15 15 15 15 15 15 15 15 16 16 16 16 16 16 16 16 16 16
18 18 18 18 18 18 18 17 17 17 17 17 17 17 16 16 16 16 15 15 15 15 15 15 15 15 15 15 15 15 15 15 15 15 16 16 16 16 16 16 15 15 15
18 18 18 18 18 18 18 18 18 17 17 17 17 16 16 16 16 15 15 15 15 15 15 15 15 15 15 15 15 15 15 15 15 15 15 15 15 15 15 15 15 15 15
18 18 17 17 18 18 18 17 17 17 17 17 16 16 16 16 15 15 15 15 15 15 15 15 15 15 15 15 15 15 15 15 15 15 15 15 15 15 15 15 15 15 15
18 18 18 18 17 18 18 17 17 17 17 17 17 16 16 16 15 15 15 15 15 15 14 14 14 15 15 15 15 15 15 16 15 15 15 15 15 15 15 15 15 15 15
18 18 18 17 17 17 17 17 17 17 17 17 17 16 16 16 15 15 15 15 15 14 14 14 14 14 15 15 15 15 15 15 16 16 15 15 15 15 15 15 15 15 15
18 18 18 17 17 17 17 17 17 17 17 17 17 16 16 16 16 15 15 15 15 15 14 14 14 14 14 15 15 15 15 15 15 15 15 15 15 15 15 15 15 15 15
Wind_Speed
9 13 19 19 19 19 19 19 19 19 19 19 19 18 18 17 16 15 14 13 12 11 11 11 11 11 11 12 12 12 13 14 14 15 15 16 17 17 18 18 17 16 18
14 18 21 20 19 19 19 19 19 18 18 18 18 17 16 16 15 14 13 12 12 12 12 11 11 11 12 12 12 12 13 14 14 15 15 16 17 17 17 17 16 15 17
17 18 21 21 20 19 19 18 18 18 17 17 16 16 15 15 14 13 13 12 12 12 11 11 12 11 12 12 12 12 13 13 14 14 14 13 15 16 16 16 16 16 17
17 17 20 21 20 19 19 18 18 17 17 16 15 15 14 14 13 12 12 12 12 11 11 11 12 12 11 12 12 12 13 13 14 14 11 12 13 15 16 16 16 15 16
14 16 20 22 21 20 19 18 17 17 16 15 14 13 13 12 12 12 11 11 11 11 11 11 11 11 11 11 11 11 12 13 13 12 10 10 12 15 15 15 15 15 15
13 16 20 22 21 20 19 18 17 16 16 15 14 13 12 12 11 11 10 10 10 10 10 10 10 10 10 10 10 10 11 13 12 10 10 11 12 14 15 15 14 14 14
12 13 19 22 21 20 19 18 17 16 15 14 13 12 11 11 10 10 9 9 9 9 9 9 9 9 9 9 9 9 11 13 11 10 10 10 12 14 14 14 13 13 13
14 12 16 21 20 19 18 18 17 15 14 14 13 12 11 10 10 9 9 8 8 8 8 8 8 7 7 7 7 7 10 13 12 10 10 10 12 14 14 14 13 13 13
11 10 11 15 18 19 18 17 16 15 14 13 12 11 10 10 9 8 7 7 7 6 6 6 6 6 6 6 5 6 9 12 12 10 10 9 12 13 13 13 13 12 12
9 8 7 10 13 14 15 16 15 14 14 13 12 11 10 9 8 7 6 6 6 5 5 5 5 4 4 4 4 5 8 11 11 10 9 10 12 13 13 13 13 12 12
9 6 7 7 9 11 12 14 14 14 13 12 10 10 8 6 6 5 5 5 5 4 4 3 3 3 3 3 4 5 7 8 9 8 8 11 12 13 13 13 12 12 12
11 8 6 7 8 9 10 10 10 10 10 9 8 7 7 6 4 3 3 4 4 4 3 2 2 2 3 3 3 4 5 6 6 7 8 11 12 12 12 12 12 12 11
11 10 8 7 7 7 5 7 7 7 8 7 7 7 7 5 4 3 2 1 2 2 2 2 3 3 3 3 2 3 4 5 5 5 7 10 10 11 12 12 12 12 11
10 9 8 7 7 6 6 6 6 6 6 5 6 7 7 4 3 3 2 2 2 2 2 2 2 2 3 2 2 3 4 4 5 5 5 9 10 10 10 11 11 11 11
11 10 9 8 7 6 5 5 6 5 5 6 6 6 7 5 3 3 2 2 2 2 1 1 1 2 2 2 2 3 3 3 4 4 3 5 8 9 9 10 11 11 11
11 10 9 8 7 6 5 4 5 6 7 7 6 7 8 7 5 4 3 3 2 2 2 2 2 2 2 2 2 1 2 2 2 3 3 3 5 7 9 9 9 10 10
10 9 9 8 7 7 6 5 5 6 7 6 6 8 8 8 7 6 3 2 2 3 3 3 3 3 2 2 2 1 1 0 1 2 2 2 2 4 6 8 9 9 10
9 9 9 10 9 8 6 5 5 6 7 7 7 8 8 8 9 7 4 3 4 4 4 3 2 2 2 2 1 1 1 1 0 1 2 3 3 3 4 6 7 9 10
9 9 9 7 8 8 7 5 6 6 6 7 8 7 8 8 9 8 4 3 5 4 3 2 2 2 2 2 2 2 2 2 1 1 2 2 3 4 3 4 5 7 8
9 8 8 7 8 8 6 5 4 5 4 5 6 7 8 8 9 8 5 4 5 3 3 3 3 3 2 2 3 4 3 2 2 2 2 1 1 2 3 2 2 4 6
10 9 9 9 8 8 6 6 5 4 4 3 4 7 8 9 9 8 5 4 4 3 3 3 2 3 3 1 3 3 3 3 3 2 2 2 1 1 2 2 2 2 3
11 11 9 10 10 9 7 5 4 5 3 3 2 4 7 8 9 7 6 4 4 4 4 3 2 2 2 2 2 3 2 3 3 3 3 2 2 2 1 1 2 2 3
12 12 12 11 10 10 8 6 5 4 4 3 2 2 3 7 8 8 8 6 4 4 3 2 2 4 3 2 2 3 3 2 1 2 3 3 3 2 2 1 0 1 2
11 10 11 11 10 10 10 10 10 7 5 5 4 4 3 6 7 8 8 7 5 4 4 2 2 2 4 2 1 2 1 2 2 0 2 2 3 2 2 2 1 0 1
9 10 10 10 10 10 11 11 11 7 5 4 4 5 4 3 5 7 8 7 5 4 4 3 3 3 2 3 2 2 2 2 2 2 0 2 2 2 2 1 1 1 1
7 8 9 10 10 10 11 11 11 10 9 8 7 6 5 3 3 5 7 6 6 5 5 4 3 4 3 3 2 2 2 2 2 2 2 0 1 2 2 2 1 2 2
Wind_Direction
157 158 152 144 137 132 128 125 122 121 120 120 121 122 125 127 129 129 129 127 125 121 115 111 110 110 110 110 112 113 116 118 121 121 122 121 119 118 116 114 112 111 112
150 156 153 147 142 137 133 130 127 125 124 123 124 125 126 127 128 129 128 126 123 120 117 114 111 112 111 112 115 118 121 122 124 124 124 123 122 119 117 116 116 118 117
147 153 152 149 145 141 137 135 132 129 128 127 126 127 127 127 128 128 128 127 123 120 117 113 111 111 112 115 119 120 124 126 125 122 120 120 122 122 122 122 121 121 120
146 150 153 152 148 145 142 139 136 133 131 130 129 129 129 129 130 130 128 126 124 121 118 114 112 111 113 116 119 122 125 126 123 120 116 121 126 128 127 124 123 123 122
144 149 155 153 151 148 146 143 139 137 135 133 133 133 132 131 130 128 127 126 125 124 121 117 114 113 113 116 120 126 131 131 127 121 119 122 127 132 129 127 126 126 126
144 151 157 154 153 151 149 146 144 142 140 138 138 138 136 133 131 129 128 126 124 124 122 120 117 115 115 117 121 127 136 138 130 126 124 127 133 135 133 130 130 130 129
145 150 157 156 155 153 152 150 148 147 145 143 141 140 139 136 135 134 132 129 127 125 123 122 120 116 114 116 121 126 138 141 137 134 133 135 141 140 136 134 134 134 132
148 147 155 158 156 155 155 155 153 151 149 147 146 146 146 142 139 140 139 137 136 133 128 124 122 119 113 114 118 125 137 141 142 143 144 146 148 143 140 138 137 136 135
143 143 149 156 158 158 159 158 155 154 153 152 152 152 150 147 144 144 144 141 140 140 137 134 129 122 116 114 119 125 139 143 143 147 153 154 154 149 145 144 142 141 140
137 142 140 147 151 154 159 161 160 158 158 157 157 159 157 153 150 149 149 150 148 148 146 143 137 128 116 112 121 133 137 138 147 152 155 162 161 157 152 150 148 146 145
152 150 144 143 144 148 155 164 163 162 163 160 161 162 151 135 135 145 158 162 159 160 156 151 147 132 111 104 124 132 132 137 147 151 159 169 169 165 160 157 154 154 153
168 168 155 151 146 148 158 157 155 155 156 152 149 145 135 132 137 150 168 164 158 156 152 136 131 112 100 101 120 130 133 142 146 155 169 174 175 173 168 164 161 160 159
168 169 165 158 149 149 143 144 141 138 139 138 142 142 137 132 133 127 122 109 102 112 90 74 73 77 92 117 130 143 146 148 154 159 175 181 182 181 175 171 169 168 167
169 173 166 157 151 152 142 141 140 137 138 140 149 152 144 135 133 128 123 118 98 96 90 72 71 70 74 99 139 154 156 153 163 163 179 185 187 188 184 180 178 177 176
174 173 172 162 158 152 141 149 150 147 149 151 152 159 155 146 141 135 122 119 116 114 107 94 85 82 74 76 124 158 167 167 169 165 180 193 194 195 192 192 189 187 185
180 176 171 168 160 152 153 152 148 151 148 146 150 158 158 153 148 135 117 111 103 113 122 110 99 95 78 78 88 131 181 180 175 174 187 202 206 203 202 201 200 198 197
180 175 174 171 161 159 159 158 150 149 148 144 146 153 154 152 148 136 123 116 111 115 109 92 80 77 78 73 65 74 112 161 189 191 201 222 230 223 217 212 210 208 208
177 176 180 179 167 165 159 152 144 145 143 141 144 146 146 147 144 132 125 124 122 111 100 92 76 72 63 66 57 33 40 45 299 226 223 235 236 236 234 225 220 218 218
181 175 175 170 163 161 152 144 137 136 136 139 141 138 139 140 140 130 123 121 121 104 89 95 67 82 82 74 78 54 37 26 354 317 269 247 231 226 235 239 233 230 228
176 172 170 161 156 147 136 124 113 113 119 130 138 143 142 142 139 127 117 116 116 104 90 83 83 66 72 70 77 61 43 31 30 21 350 333 248 222 217 224 234 238 235
174 176 170 165 158 151 149 148 145 149 147 139 145 150 149 146 142 132 122 115 113 112 115 113 102 81 56 43 80 48 27 33 45 32 20 22 17 348 188 196 207 215 231
182 186 179 175 168 167 166 158 148 141 140 139 134 144 155 150 148 143 136 135 127 113 97 93 111 108 61 43 107 94 43 9 9 17 18 29 15 7 23 205 199 212 221
187 188 187 185 179 170 158 137 119 100 90 111 136 152 164 160 155 149 150 144 141 132 126 121 124 125 119 55 59 135 141 196 312 348 10 22 12 17 10 4 267 232 224
191 187 182 180 175 168 162 162 160 162 165 182 174 170 162 165 162 157 154 151 147 140 141 145 130 127 131 128 78 57 100 143 144 72 346 358 5 19 5 356 358 295 231
184 181 177 175 176 172 172 172 167 164 161 149 151 158 163 165 170 166 160 156 153 150 152 142 127 122 128 142 145 131 99 72 86 136 175 334 352 354 349 334 312 286 252
174 174 175 175 178 176 176 175 174 170 164 159 168 173 173 169 173 175 168 167 165 160 160 157 145 132 125 124 130 140 150 149 154 142 155 217 305 316 326 316 286 259 244
Height
1511 1515 1518 1521 1523 1525 1526 1528 1529 1530 1531 1532 1533 1535 1536 1537 1538 1539 1540 1541 1542 1543 1544 1544 1545 1546 1547 1547 1548 1548 1549 1550 1550 1551 1552 1553 1554 1555 1556 1557 1558 1559 1560
1508 1513 1518 1521 1523 1526 1527 1529 1530 1531 1533 1534 1535 1536 1538 1539 1540 1541 1542 1543 1544 1544 1545 1546 1546 1547 1548 1548 1549 1550 1550 1551 1552 1553 1554 1555 1556 1557 1558 1559 1560 1561 1563
1508 1513 1517 1521 1524 1526 1528 1530 1531 1533 1534 1535 1537 1538 1539 1540 1542 1543 1544 1545 1545 1546 1546 1547 1548 1548 1549 1550 1550 1551 1552 1553 1554 1555 1556 1557 1558 1559 1560 1561 1562 1564 1565
1508 1513 1517 1521 1524 1527 1529 1531 1532 1534 1535 1537 1538 1539 1541 1542 1543 1545 1545 1546 1547 1547 1548 1549 1549 1550 1551 1551 1552 1553 1554 1555 1556 1557 1558 1559 1560 1561 1562 1563 1565 1566 1567
1509 1513 1517 1521 1524 1527 1529 1531 1533 1535 1536 1538 1540 1541 1542 1544 1545 1546 1547 1548 1548 1549 1550 1550 1551 1552 1553 1553 1554 1555 1556 1557 1558 1559 1560 1561 1562 1563 1564 1566 1567 1568 1569
1509 1514 1517 1521 1524 1527 1530 1532 1534 1536 1538 1539 1541 1542 1544 1545 1546 1547 1548 1549 1550 1551 1551 1552 1553 1554 1555 1555 1556 1557 1558 1558 1559 1560 1562 1563 1564 1565 1566 1567 1569 1570 1571
1510 1514 1518 1521 1525 1528 1530 1533 1535 1537 1539 1540 1542 1544 1545 1546 1548 1549 1550 1551 1552 1552 1553 1554 1555 1555 1556 1557 1558 1559 1559 1560 1561 1562 1563 1564 1565 1566 1568 1569 1570 1572 1573
1510 1515 1519 1522 1525 1528 1531 1533 1536 1538 1540 1541 1543 1544 1546 1547 1549 1550 1551 1552 1553 1554 1554 1555 1556 1557 1558 1559 1560 1561 1561 1562 1562 1563 1564 1565 1566 1568 1569 1570 1572 1573 1574
1512 1515 1519 1522 1526 1529 1532 1534 1536 1538 1540 1542 1544 1545 1547 1548 1550 1551 1552 1553 1554 1555 1556 1556 1557 1558 1559 1560 1561 1562 1562 1563 1564 1564 1565 1566 1568 1569 1570 1572 1573 1574 1576
1512 1516 1519 1523 1526 1529 1532 1535 1537 1539 1541 1543 1545 1546 1548 1549 1550 1552 1553 1554 1554 1555 1556 1557 1558 1559 1560 1561 1562 1563 1564 1564 1565 1566 1567 1567 1569 1570 1571 1572 1574 1575 1577
1513 1516 1520 1523 1526 1529 1532 1535 1537 1540 1542 1543 1545 1547 1549 1550 1551 1552 1553 1554 1555 1556 1557 1557 1558 1559 1560 1561 1562 1564 1564 1565 1566 1567 1568 1569 1570 1571 1572 1573 1575 1576 1578
1512 1516 1520 1524 1526 1529 1532 1535 1537 1540 1542 1544 1546 1547 1549 1550 1551 1553 1554 1555 1555 1556 1557 1558 1559 1559 1560 1561 1563 1564 1565 1566 1567 1568 1568 1569 1571 1572 1573 1574 1576 1577 1578
1511 1515 1519 1523 1526 1529 1532 1535 1538 1540 1543 1544 1546 1548 1549 1551 1552 1553 1554 1555 1556 1556 1557 1558 1559 1559 1561 1562 1563 1564 1565 1566 1567 1568 1569 1570 1571 1572 1574 1575 1576 1577 1579
1510 1514 1519 1522 1526 1529 1532 1535 1538 1541 1543 1545 1547 1548 1550 1551 1552 1553 1554 1555 1556 1557 1557 1558 1559 1560 1561 1562 1563 1564 1565 1566 1568 1569 1570 1571 1572 1573 1574 1575 1576 1578 1579
1509 1513 1518 1522 1526 1529 1532 1535 1538 1541 1543 1545 1547 1549 1550 1551 1552 1553 1554 1555 1556 1557 1557 1558 1559 1560 1561 1562 1563 1564 1565 1566 1567 1569 1570 1571 1572 1573 1574 1575 1576 1577 1579
1508 1513 1517 1521 1525 1529 1532 1535 1538 1541 1544 1546 1547 1549 1550 1551 1552 1553 1554 1555 1556 1557 1557 1558 1559 1560 1561 1562 1563 1564 1565 1566 1567 1568 1570 1571 1572 1573 1574 1575 1576 1577 1579
1508 1513 1517 1521 1525 1529 1532 1535 1538 1541 1544 1546 1547 1549 1550 1551 1552 1553 1554 1554 1555 1556 1557 1558 1559 1560 1561 1562 1563 1564 1565 1566 1567 1568 1569 1570 1571 1572 1573 1574 1576 1577 1578
1507 1512 1517 1520 1524 1528 1532 1535 1538 1541 1543 1545 1547 1548 1550 1551 1552 1552 1553 1554 1555 1556 1557 1558 1559 1560 1561 1561 1562 1563 1565 1565 1566 1567 1569 1570 1571 1572 1573 1574 1575 1576 1577
1507 1511 1515 1519 1523 1527 1531 1535 1538 1541 1543 1545 1547 1548 1549 1550 1551 1552 1553 1554 1555 1556 1556 1557 1558 1560 1561 1561 1562 1563 1564 1565 1566 1567 1568 1569 1570 1571 1572 1573 1574 1575 1576
1506 1510 1514 1518 1522 1526 1530 1534 1537 1540 1542 1545 1546 1548 1549 1550 1551 1552 1553 1554 1554 1555 1556 1557 1558 1559 1560 1561 1562 1563 1564 1565 1566 1566 1567 1568 1569 1571 1571 1572 1573 1574 1575
1504 1508 1512 1516 1520 1524 1528 1531 1535 1538 1541 1544 1545 1547 1548 1550 1551 1551 1552 1553 1554 1555 1556 1557 1558 1559 1560 1561 1562 1563 1564 1565 1565 1566 1567 1568 1569 1570 1571 1572 1573 1573 1574
1501 1505 1509 1514 1518 1522 1526 1530 1534 1537 1540 1543 1545 1546 1548 1549 1550 1551 1552 1553 1554 1555 1556 1556 1558 1559 1560 1561 1562 1563 1564 1566 1566 1566 1567 1568 1569 1569 1570 1571 1572 1572 1573
1498 1502 1506 1511 1515 1520 1524 1529 1532 1536 1539 1541 1543 1545 1547 1549 1550 1551 1552 1553 1554 1554 1555 1556 1557 1558 1559 1560 1561 1563 1563 1564 1565 1566 1567 1567 1568 1569 1570 1570 1571 1571 1572
1495 1499 1503 1508 1513 1517 1522 1525 1529 1532 1535 1539 1542 1544 1546 1548 1550 1551 1552 1553 1553 1554 1554 1555 1557 1558 1559 1560 1561 1562 1563 1563 1564 1565 1567 1567 1568 1568 1569 1570 1570 1570 1571
1494 1497 1501 1506 1510 1515 1519 1523 1527 1530 1534 1538 1541 1543 1545 1547 1549 1550 1551 1552 1553 1553 1554 1555 1556 1557 1558 1559 1560 1561 1562 1563 1563 1564 1565 1567 1567 1568 1568 1569 1569 1570 1570
1493 1496 1500 1503 1508 1512 1517 1521 1524 1528 1533 1536 1539 1542 1544 1546 1548 1549 1550 1551 1552 1553 1554 1554 1555 1556 1557 1558 1559 1560 1561 1561 1562 1563 1564 1565 1566 1567 1567 1567 1568 1568 1569